Terug naar catalogus

STARLINK-6198

ActiefCommunicatieVLEO
NORAD 56768·PAYLOAD·🇺🇸 United States

Gelanceerd May 31, 2023 vanaf Vandenberg Space Force Base

Loading…

Volgende Passages (komende 24 uur)

TLE

VersSource: CelesTrak SupGP

Epoch: Sep 14, 2026, 21:57 UTC

1 56768C 23078B   26257.91506944  .00531370  00000+0  40886-1 0  2574
2 56768  70.0007 207.1964 0003038 267.3720  21.9669 15.01338334    13

Volg STARLINK-6198 in realtime met AllMySat

Download on the App Store